This is the latest recevied weather packets stored in our database for station/object KD5BIG-13. If no packets are shown the sender has not sent any weather packets the latest 10 day(s).
| Time | Temp. | Humidity | Pressure | Rain* | Wind** | Luminosity | Snow |
|---|---|---|---|---|---|---|---|
| 1777594063 | 17.78° C | 96% | 1015.9 hPa | 0 mm | - | 10 W/m² | - |
| 1777593759 | 17.78° C | 96% | 1015.7 hPa | 0 mm | - | 12 W/m² | - |
| 1777593456 | 17.78° C | 97% | 1015.8 hPa | 0 mm | - | 11 W/m² | - |
| 1777593154 | 17.78° C | 97% | 1015.9 hPa | 0 mm | - | 14 W/m² | - |
| 1777592853 | 17.78° C | 97% | 1015.8 hPa | 0 mm | - | 18 W/m² | - |
| 1777592550 | 17.78° C | 97% | 1015.7 hPa | 0 mm | - | 22 W/m² | - |
| 1777592246 | 17.78° C | 97% | 1015.9 hPa | 0 mm | - | 20 W/m² | - |
| 1777591942 | 17.78° C | 97% | 1015.8 hPa | 0 mm | - | 21 W/m² | - |
| 1777591638 | 17.78° C | 97% | 1015.9 hPa | 1.27 mm | - | 28 W/m² | - |
| 1777591335 | 17.78° C | 97% | 1016 hPa | 1.27 mm | - | 43 W/m² | - |
| 1777591030 | 17.78° C | 97% | 1016.1 hPa | 1.27 mm | - | 37 W/m² | - |
| 1777590726 | 17.78° C | 96% | 1016.7 hPa | 1.78 mm | - | 15 W/m² | - |
| 1777590422 | 17.78° C | 96% | 1016.6 hPa | 3.56 mm | - | 21 W/m² | - |
| 1777590119 | 17.78° C | 96% | 1016.5 hPa | 4.83 mm | - | 23 W/m² | - |
| 1777589815 | 17.78° C | 96% | 1016.4 hPa | 4.32 mm | - | 26 W/m² | - |
| 1777589515 | 17.78° C | 96% | 1016.6 hPa | 2.29 mm | - | 15 W/m² | - |
| 1777589214 | 17.78° C | 96% | 1016.9 hPa | 1.78 mm | - | 10 W/m² | - |
| 1777588911 | 17.78° C | 95% | 1016.5 hPa | 1.27 mm | - | 21 W/m² | - |
| 1777588607 | 17.78° C | 95% | 1016.1 hPa | 1.27 mm | - | 21 W/m² | - |
| 1777588302 | 18.33° C | 95% | 1016.2 hPa | 1.27 mm | - | 27 W/m² | - |
| 1777587998 | 18.33° C | 95% | 1016.1 hPa | 1.78 mm | - | 31 W/m² | - |
| 1777587694 | 18.33° C | 94% | 1015.9 hPa | 3.05 mm | - | 47 W/m² | - |
| 1777587394 | 18.33° C | 93% | 1015.9 hPa | 3.05 mm | - | 31 W/m² | - |
| 1777587090 | 18.33° C | 94% | 1016 hPa | 0.51 mm | - | 22 W/m² | - |
| 1777586786 | 18.33° C | 94% | 1015.8 hPa | 0 mm | - | 18 W/m² | - |
* Rain latest hour (hover to see other rain measurements)
** Current wind speed in m/s (hover to see current wind gust speed)